Tracking 31027 objects as of 19-Jul-2025
HD Live streaming from Space Station
objects crossing your sky now

COSMOS 2251 DEB

Track COSMOS 2251 DEB now!
10-day predictions


NORAD ID: 37484
Int'l Code: 1993-036BLM
Perigee: 734.0 km
Apogee: 791.8 km
Inclination: 73.8 °
Period: 99.9 minutes
Semi major axis: 7133 km
RCS: 0.0078 m2 (small)
Launch date: June 16, 1993
Source: Commonwealth of Independent States (former USSR) (CIS)
Launch site: PLESETSK MISSILE AND SPACE COMPLEX (PKMTR)

Note: This is SATELLITE DEBRIS
Your satellite tracking list
Your tracking list is empty




NASA's NSSDC Master Catalog

Two Line Element Set (TLE):
1 37484U 93036BLM 25197.08335727  .00001498  00000-0  47196-3 0  9998
2 37484  73.8229 129.1251 0040512 194.7086 182.9543 14.40818057826553
Source of the keplerian elements: AFSPC